Weather History for KSGU - January, 2013

Change the Weather History Date:

Thursday, January 31, 2013

  Actual Average Record
Temperature  
Mean Temperature 44 °F -  
Max Temperature 57 °F 56 °F 70 °F (1935)
Min Temperature 30 °F 29 °F 14 °F (1951)
Degree Days  
Heating Degree Days 22    
Moisture  
Dew Point 29 °F    
Average Humidity 63    
Maximum Humidity 87    
Minimum Humidity 33    
Precipitation  
Precipitation 0.00 in - - ()
Sea Level Pressure  
Sea Level Pressure 30.32 in    
Wind  
Wind Speed 1 mph (SSW)    
Max Wind Speed 6 mph    
Max Gust Speed -    
Visibility 10 miles    
Events      
Averages and records for this station are not official NWS values.
T = Trace of Precipitation, MM = Missing Value Source: NWS Daily Summary

Daily Weather History Graph

Daily Weather History Graph

Search for Another Location

Airport or City:

Trip Planner

Search our weather history database for the weather conditions in past years. The results will help you decide how hot, cold, wet, or windy it might be!

Date:

Astronomy

Jan. 31, 2013 Rise Set
Actual Time 7:37 AM MST 5:58 PM MST
Civil Twilight 7:10 AM MST 6:26 PM MST
Nautical Twilight 6:39 AM MST 6:57 PM MST
Astronomical Twilight 6:08 AM MST 7:27 PM MST
Moon 10:56 PM MST (1/31) 9:47 AM MST (1/31)
Length of Visible Light 11h 15m
Length of Day
10h 21m
Waning Gibbous, 79% of the Moon is Illuminated
Jan 31
Waning Gibbous
Feb 3
Last Quarter
Feb 10
New
Feb 17
First Quarter
Feb 25
Full

Hourly Weather History & Observations

Time (MST) Temp. Windchill Dew Point Humidity Pressure Visibility Wind Dir Wind Speed Gust Speed Precip Events Conditions
12:15 AM 39.2 °F - 28.4 °F 65% 30.33 in 10.0 mi Calm Calm - N/A   Clear
12:35 AM 37.4 °F - 28.4 °F 70% 30.33 in 8.0 mi Calm Calm - N/A   Clear
12:55 AM 35.6 °F 32.8 °F 26.6 °F 70% 30.33 in 10.0 mi SE 3.5 mph - N/A   Clear
1:15 AM 35.6 °F - 28.4 °F 75% 30.33 in 10.0 mi Calm Calm - N/A   Clear
1:35 AM 33.8 °F - 26.6 °F 75% 30.34 in 10.0 mi Calm Calm - N/A   Clear
1:55 AM 35.6 °F - 28.4 °F 75% 30.34 in 10.0 mi Calm Calm - N/A   Clear
2:15 AM 35.6 °F - 28.4 °F 75% 30.34 in 10.0 mi Calm Calm - N/A   Clear
2:35 AM 33.8 °F 30.8 °F 26.6 °F 75% 30.35 in 10.0 mi SSE 3.5 mph - N/A   Clear
2:55 AM 33.8 °F 30.8 °F 26.6 °F 75% 30.34 in 10.0 mi South 3.5 mph - N/A   Clear
3:15 AM 33.8 °F - 26.6 °F 75% 30.34 in 10.0 mi Calm Calm - N/A   Clear
3:35 AM 33.8 °F - 26.6 °F 75% 30.34 in 10.0 mi Calm Calm - N/A   Clear
3:55 AM 33.8 °F 30.8 °F 26.6 °F 75% 30.34 in 10.0 mi NNE 3.5 mph - N/A   Clear
4:15 AM 33.8 °F - 26.6 °F 75% 30.34 in 10.0 mi Calm Calm - N/A   Clear
4:35 AM 32.0 °F - 26.6 °F 80% 30.34 in 10.0 mi Calm Calm - N/A   Clear
4:55 AM 33.8 °F - 26.6 °F 75% 30.34 in 10.0 mi Calm Calm - N/A   Clear
5:35 AM 32.0 °F 28.7 °F 26.6 °F 80% 30.35 in 10.0 mi SSW 3.5 mph - N/A   Clear
5:55 AM 33.8 °F - 26.6 °F 75% 30.35 in 10.0 mi Calm Calm - N/A   Clear
6:15 AM 33.8 °F - 26.6 °F 75% 30.36 in 10.0 mi Calm Calm - N/A   Clear
6:35 AM 33.8 °F - 26.6 °F 75% 30.36 in 10.0 mi Calm Calm - N/A   Clear
6:55 AM 30.2 °F - 26.6 °F 86% 30.36 in 10.0 mi Calm Calm - N/A   Clear
7:15 AM 30.2 °F - 26.6 °F 86% 30.36 in 10.0 mi Calm Calm - N/A   Clear
7:35 AM 30.2 °F 25.4 °F 26.6 °F 86% 30.37 in 10.0 mi NNW 4.6 mph - N/A   Clear
7:55 AM 30.2 °F - 24.8 °F 80% 30.37 in 10.0 mi Calm Calm - N/A   Clear
8:15 AM 30.2 °F 24.3 °F 26.6 °F 86% 30.38 in 10.0 mi South 5.8 mph - N/A   Clear
8:35 AM 30.2 °F - 26.6 °F 86% 30.38 in 10.0 mi Calm Calm - N/A   Clear
8:55 AM 32.0 °F - 28.4 °F 87% 30.38 in 10.0 mi Calm Calm - N/A   Clear
9:15 AM 33.8 °F 30.8 °F 28.4 °F 81% 30.38 in 10.0 mi South 3.5 mph - N/A   Clear
9:35 AM 35.6 °F 31.7 °F 28.4 °F 75% 30.38 in 10.0 mi South 4.6 mph - N/A   Clear
9:55 AM 37.4 °F - 28.4 °F 70% 30.39 in 10.0 mi Calm Calm - N/A   Clear
10:15 AM 39.2 °F - 28.4 °F 65% 30.39 in 10.0 mi Calm Calm - N/A   Clear
10:35 AM 39.2 °F - 28.4 °F 65% 30.39 in 10.0 mi Calm Calm - N/A   Clear
10:55 AM 41.0 °F 38.0 °F 30.2 °F 65% 30.38 in 10.0 mi NW 4.6 mph - N/A   Clear
11:15 AM 42.8 °F - 30.2 °F 61% 30.38 in 10.0 mi Calm Calm - N/A   Clear
11:35 AM 42.8 °F 41.1 °F 30.2 °F 61% 30.37 in 10.0 mi WNW 3.5 mph - N/A   Clear
11:55 AM 44.6 °F 43.1 °F 30.2 °F 57% 30.37 in 10.0 mi NNW 3.5 mph - N/A   Clear
12:35 PM 46.4 °F - 30.2 °F 53% 30.34 in 10.0 mi Calm Calm - N/A   Clear
12:55 PM 48.2 °F - 30.2 °F 50% 30.34 in 10.0 mi Calm Calm - N/A   Clear
1:15 PM 48.2 °F - 30.2 °F 50% 30.32 in 10.0 mi SSW 4.6 mph - N/A   Clear
1:35 PM 51.8 °F - 30.2 °F 44% 30.31 in 10.0 mi Calm Calm - N/A   Clear
1:55 PM 51.8 °F - 30.2 °F 44% 30.31 in 10.0 mi Calm Calm - N/A   Clear
2:15 PM 53.6 °F - 30.2 °F 41% 30.30 in 10.0 mi Calm Calm - N/A   Clear
2:35 PM 53.6 °F - 30.2 °F 41% 30.30 in 10.0 mi Calm Calm - N/A   Clear
3:15 PM 55.4 °F - 30.2 °F 38% 30.29 in 10.0 mi NNW 3.5 mph - N/A   Clear
3:35 PM 57.2 °F - 30.2 °F 36% 30.28 in 10.0 mi NNW 3.5 mph - N/A   Clear
3:55 PM 57.2 °F - 28.4 °F 33% 30.28 in 10.0 mi Calm Calm - N/A   Clear
4:15 PM 57.2 °F - 28.4 °F 33% 30.28 in 10.0 mi North 3.5 mph - N/A   Clear
4:35 PM 55.4 °F - 28.4 °F 36% 30.27 in 10.0 mi NNW 3.5 mph - N/A   Clear
5:15 PM 55.4 °F - 28.4 °F 36% 30.27 in 10.0 mi Calm Calm - N/A   Clear
5:35 PM 55.4 °F - 28.4 °F 36% 30.26 in 10.0 mi Calm Calm - N/A   Clear
5:55 PM 53.6 °F - 28.4 °F 38% 30.26 in 10.0 mi Calm Calm - N/A   Clear
6:15 PM 51.8 °F - 30.2 °F 44% 30.26 in 10.0 mi NNW 3.5 mph - N/A   Clear
6:55 PM 50.0 °F - 28.4 °F 43% 30.26 in 10.0 mi Calm Calm - N/A   Clear
7:35 PM 46.4 °F 44.3 °F 28.4 °F 50% 30.26 in 10.0 mi South 4.6 mph - N/A   Clear
7:55 PM 44.6 °F - 30.2 °F 57% 30.26 in 10.0 mi Calm Calm - N/A   Clear
8:15 PM 44.6 °F - 30.2 °F 57% 30.26 in 10.0 mi Calm Calm - N/A   Clear
8:35 PM 44.6 °F - 32.0 °F 61% 30.27 in 10.0 mi Calm Calm - N/A   Clear
8:55 PM 42.8 °F - 32.0 °F 66% 30.27 in 10.0 mi Calm Calm - N/A   Clear
9:15 PM 42.8 °F - 30.2 °F 61% 30.27 in 10.0 mi Calm Calm - N/A   Clear
9:35 PM 42.8 °F - 30.2 °F 61% 30.27 in 10.0 mi Calm Calm - N/A   Clear
9:55 PM 41.0 °F - 30.2 °F 65% 30.28 in 10.0 mi Calm Calm - N/A   Clear
10:15 PM 41.0 °F - 30.2 °F 65% 30.29 in 10.0 mi Calm Calm - N/A   Clear
10:35 PM 41.0 °F - 30.2 °F 65% 30.29 in 10.0 mi Calm Calm - N/A   Clear
11:15 PM 39.2 °F 35.9 °F 28.4 °F 65% 30.29 in 10.0 mi East 4.6 mph - N/A   Clear
11:35 PM 41.0 °F 39.0 °F 28.4 °F 61% 30.29 in 10.0 mi ESE 3.5 mph - N/A   Clear
11:55 PM 39.2 °F 35.9 °F 28.4 °F 65% 30.30 in 10.0 mi SE 4.6 mph - N/A   Clear